ETD391 VCBI-OMAA

Flight info

Callsign ETD391
Flight time N/A
Altitude 34000
Route BASUR2D BASUR P570 DOTAT/N0455F360 P570 EMURU N563 TULBU P558 SODEX/N0446F340 N563 NOBTO
Aircraft A320/M-SDE3FGHIRWY/LB1

Departure

Time 2026-04-23 18:31
Airport Bandaranaike International Colombo Airport (VCBI)

Arrival

Time N/A
Airport Zayed International Airport (OMAA)
Time Latitude Longitude Altitude Speed Heading
2026-04-23 18:13 7.17797 79.88664 27 ft 0 kts 37°
2026-04-23 18:23 7.17791 79.88659 27 ft 3 kts 37°
2026-04-23 18:23 7.17759 79.88634 27 ft 2 kts 37°
2026-04-23 18:24 7.17729 79.88616 27 ft 3 kts
2026-04-23 18:24 7.17712 79.88618 27 ft 3 kts 327°
2026-04-23 18:24 7.17703 79.88624 27 ft 1 kts 305°
2026-04-23 18:25 7.17703 79.88625 27 ft 0 kts 306°
2026-04-23 18:26 7.17706 79.88620 27 ft 2 kts 306°
2026-04-23 18:26 7.17717 79.88605 27 ft 4 kts 306°
2026-04-23 18:26 7.17736 79.88578 27 ft 6 kts 307°
2026-04-23 18:27 7.17779 79.88531 27 ft 13 kts 315°
2026-04-23 18:27 7.17852 79.88441 27 ft 19 kts 294°
2026-04-23 18:27 7.17771 79.88337 28 ft 23 kts 220°
2026-04-23 18:27 7.17624 79.88227 28 ft 29 kts 216°
2026-04-23 18:28 7.17456 79.88098 27 ft 31 kts 218°
2026-04-23 18:28 7.17301 79.87979 27 ft 28 kts 217°
2026-04-23 18:28 7.17140 79.87858 27 ft 30 kts 217°
2026-04-23 18:28 7.16975 79.87731 27 ft 30 kts 217°
2026-04-23 18:29 7.16835 79.87617 27 ft 17 kts 240°
2026-04-23 18:29 7.16857 79.87565 28 ft 1 kts 306°
2026-04-23 18:29 7.16865 79.87554 28 ft 4 kts 306°
2026-04-23 18:29 7.16888 79.87522 28 ft 7 kts 306°
2026-04-23 18:30 7.16933 79.87483 29 ft 10 kts 351°
2026-04-23 18:30 7.16978 79.87506 29 ft 0 kts 37°
2026-04-23 18:30 7.17007 79.87528 29 ft 26 kts 37°
2026-04-23 18:30 7.17347 79.87794 28 ft 95 kts 39°
2026-04-23 18:31 7.18027 79.88295 29 ft 145 kts 38°
2026-04-23 18:31 7.18911 79.89018 172 ft 171 kts 42°
2026-04-23 18:31 7.19804 79.89767 838 ft 167 kts 34°
2026-04-23 18:31 7.20902 79.90063 1411 ft 170 kts 348°
2026-04-23 18:32 7.21951 79.89452 1688 ft 189 kts 315°
2026-04-23 18:32 7.22894 79.88457 2034 ft 203 kts 309°
2026-04-23 18:32 7.23916 79.87380 2299 ft 224 kts 317°
2026-04-23 18:32 7.25158 79.86323 2603 ft 245 kts 320°
2026-04-23 18:33 7.26517 79.85223 3237 ft 254 kts 317°
2026-04-23 18:33 7.27736 79.83907 3809 ft 260 kts 309°
2026-04-23 18:33 7.28871 79.82483 3963 ft 260 kts 308°
2026-04-23 18:33 7.29971 79.81034 4004 ft 260 kts 307°
2026-04-23 18:34 7.31058 79.79586 4001 ft 259 kts 307°
2026-04-23 18:34 7.32132 79.78158 4003 ft 259 kts 307°
2026-04-23 18:34 7.33102 79.76632 4002 ft 258 kts 288°
2026-04-23 18:34 7.33234 79.74857 4002 ft 257 kts 255°
2026-04-23 18:35 7.32352 79.73263 4201 ft 273 kts 221°
2026-04-23 18:35 7.30853 79.72062 5003 ft 277 kts 216°
2026-04-23 18:35 7.29308 79.70870 5783 ft 282 kts 216°
2026-04-23 18:35 7.27738 79.69662 6544 ft 286 kts 216°
2026-04-23 18:36 7.26146 79.68438 7278 ft 290 kts 217°
2026-04-23 18:36 7.24534 79.67194 8021 ft 294 kts 217°
2026-04-23 18:36 7.22904 79.65937 8759 ft 297 kts 217°
2026-04-23 18:36 7.21252 79.64665 9480 ft 301 kts 217°
2026-04-23 18:37 7.19725 79.63209 10073 ft 310 kts 232°
2026-04-23 18:37 7.18719 79.61219 10221 ft 332 kts 256°
2026-04-23 18:37 7.18556 79.58851 10418 ft 348 kts 279°
2026-04-23 18:37 7.19333 79.56535 10893 ft 353 kts 298°
2026-04-23 18:38 7.20483 79.54337 11476 ft 356 kts 299°
2026-04-23 18:38 7.21647 79.52122 12075 ft 360 kts 299°
2026-04-23 18:38 7.22809 79.49914 12649 ft 363 kts 299°
2026-04-23 18:38 7.23998 79.47655 13229 ft 367 kts 299°
2026-04-23 18:39 7.25194 79.45378 13784 ft 370 kts 299°
2026-04-23 18:39 7.26402 79.43081 14290 ft 373 kts 299°
2026-04-23 18:39 7.27622 79.40760 14800 ft 376 kts 299°
2026-04-23 18:39 7.28851 79.38423 15308 ft 379 kts 299°
2026-04-23 18:40 7.30088 79.36068 15816 ft 382 kts 299°
2026-04-23 18:40 7.31334 79.33694 16317 ft 385 kts 299°
2026-04-23 18:40 7.32588 79.31302 16817 ft 388 kts 299°
2026-04-23 18:40 7.33853 79.28885 17315 ft 391 kts 299°
2026-04-23 18:41 7.35128 79.26452 17812 ft 395 kts 299°
2026-04-23 18:41 7.36415 79.23995 18284 ft 398 kts 298°
2026-04-23 18:41 7.37707 79.21528 18733 ft 400 kts 298°
2026-04-23 18:41 7.39011 79.19038 19188 ft 403 kts 298°
2026-04-23 18:42 7.40324 79.16534 19657 ft 405 kts 298°
2026-04-23 18:42 7.41642 79.14016 20126 ft 408 kts 298°
2026-04-23 18:42 7.42971 79.11476 20593 ft 410 kts 298°
2026-04-23 18:42 7.44306 79.08933 21068 ft 412 kts 298°
2026-04-23 18:43 7.45649 79.06371 21556 ft 414 kts 298°
2026-04-23 18:43 7.46996 79.03795 22033 ft 416 kts 298°
2026-04-23 18:43 7.48351 79.01207 22489 ft 418 kts 298°
2026-04-23 18:43 7.49711 78.98617 22953 ft 420 kts 297°
2026-04-23 18:44 7.51077 78.96008 23382 ft 422 kts 297°
2026-04-23 18:44 7.52432 78.93420 23730 ft 424 kts 297°
2026-04-23 18:44 7.53806 78.90783 24066 ft 426 kts 297°
2026-04-23 18:44 7.55184 78.88135 24386 ft 429 kts 297°
2026-04-23 18:45 7.56575 78.85466 24708 ft 431 kts 296°
2026-04-23 18:45 7.57976 78.82781 25005 ft 434 kts 297°
2026-04-23 18:45 7.59384 78.80084 25312 ft 436 kts 296°
2026-04-23 18:45 7.60798 78.77376 25618 ft 439 kts 296°
2026-04-23 18:46 7.62224 78.74640 25923 ft 441 kts 296°
2026-04-23 18:46 7.63655 78.71897 26217 ft 443 kts 296°
2026-04-23 18:46 7.65095 78.69139 26506 ft 446 kts 296°
2026-04-23 18:46 7.66541 78.66368 26788 ft 448 kts 296°
2026-04-23 18:47 7.67991 78.63582 27067 ft 450 kts 296°
2026-04-23 18:47 7.69446 78.60778 27336 ft 453 kts 296°
2026-04-23 18:47 7.70911 78.57956 27605 ft 455 kts 296°
2026-04-23 18:47 7.72385 78.55125 27872 ft 457 kts 296°
2026-04-23 18:48 7.73867 78.52279 28140 ft 460 kts 295°
2026-04-23 18:48 7.75357 78.49421 28419 ft 462 kts 295°
2026-04-23 18:48 7.76860 78.46538 28696 ft 465 kts 295°
2026-04-23 18:48 7.78365 78.43643 28963 ft 467 kts 295°
2026-04-23 18:49 7.79877 78.40733 29226 ft 470 kts 295°
2026-04-23 18:49 7.81398 78.37807 29488 ft 473 kts 295°
2026-04-23 18:49 7.82927 78.34863 29755 ft 475 kts 295°
2026-04-23 18:49 7.84466 78.31903 30045 ft 476 kts 295°
2026-04-23 18:50 7.85485 78.29945 30258 ft 476 kts 295°
2026-04-23 18:50 7.87537 78.25998 30700 ft 475 kts 295°
2026-04-23 18:50 7.89048 78.23084 31041 ft 474 kts 294°
2026-04-23 18:50 7.90574 78.20139 31383 ft 474 kts 294°
2026-04-23 18:51 7.92100 78.17199 31722 ft 473 kts 294°
2026-04-23 18:51 7.93608 78.14259 32073 ft 472 kts 293°
2026-04-23 18:51 7.95030 78.11280 32427 ft 470 kts 291°
2026-04-23 18:51 7.96370 78.08272 32781 ft 469 kts 290°
2026-04-23 18:52 7.97661 78.05257 33145 ft 468 kts 289°
2026-04-23 18:52 7.98939 78.02241 33503 ft 467 kts 289°
2026-04-23 18:52 8.00228 77.99229 33782 ft 468 kts 289°
2026-04-23 18:53 8.02867 77.93208 33838 ft 470 kts 290°
2026-04-23 18:53 8.05559 77.87187 33848 ft 471 kts 290°
2026-04-23 18:54 8.08256 77.81165 33836 ft 471 kts 290°
2026-04-23 18:54 8.10936 77.75138 33852 ft 470 kts 290°
2026-04-23 18:55 8.13600 77.69110 33843 ft 470 kts 290°
2026-04-23 18:55 8.16265 77.63082 33850 ft 470 kts 290°
2026-04-23 18:56 8.18483 77.58075 33854 ft 470 kts 290°
2026-04-23 18:56 8.21589 77.51070 33863 ft 471 kts 289°
2026-04-23 18:57 8.24254 77.45036 33866 ft 470 kts 289°
2026-04-23 18:57 8.26916 77.39017 33871 ft 470 kts 289°
2026-04-23 18:58 8.29583 77.32995 33867 ft 469 kts 289°
2026-04-23 18:58 8.32236 77.26984 33867 ft 469 kts 289°
2026-04-23 18:59 8.34890 77.20975 33854 ft 468 kts 289°
2026-04-23 18:59 8.37538 77.14970 33866 ft 468 kts 289°
2026-04-23 19:00 8.40186 77.08957 33857 ft 468 kts 289°
2026-04-23 19:00 8.42838 77.02953 33857 ft 468 kts 289°
2026-04-23 19:01 8.45493 76.96953 33853 ft 468 kts 289°
2026-04-23 19:01 8.48420 76.91118 33857 ft 474 kts 300°
2026-04-23 19:02 8.51650 76.86580 33845 ft 475 kts 301°
2026-04-23 19:02 8.56143 76.80291 33857 ft 475 kts 301°
2026-04-23 19:03 8.59999 76.74873 33858 ft 475 kts 301°
2026-04-23 19:03 8.63843 76.69450 33854 ft 474 kts 301°
2026-04-23 19:04 8.67685 76.64033 33853 ft 474 kts 301°
2026-04-23 19:04 8.71531 76.58619 33858 ft 474 kts 301°
2026-04-23 19:05 8.75380 76.53214 33859 ft 474 kts 301°
2026-04-23 19:05 8.79237 76.47807 33855 ft 474 kts 301°
2026-04-23 19:06 8.83071 76.42400 33855 ft 474 kts 301°
2026-04-23 19:06 8.86882 76.37016 33858 ft 473 kts 301°
2026-04-23 19:07 8.90742 76.31571 33854 ft 473 kts 301°
2026-04-23 19:07 8.94552 76.26198 33856 ft 473 kts 301°
2026-04-23 19:08 8.98388 76.20792 33858 ft 473 kts 301°
2026-04-23 19:08 9.02227 76.15388 33859 ft 473 kts 301°
2026-04-23 19:09 9.06058 76.09980 33864 ft 472 kts 301°
2026-04-23 19:09 9.09881 76.04574 33862 ft 472 kts 301°
2026-04-23 19:10 9.13699 75.99172 33865 ft 472 kts 301°
2026-04-23 19:10 9.17520 75.93767 33864 ft 472 kts 301°
2026-04-23 19:11 9.21338 75.88363 33864 ft 472 kts 301°
2026-04-23 19:11 9.25153 75.82969 33868 ft 471 kts 301°
2026-04-23 19:12 9.28322 75.78486 33866 ft 471 kts 301°
2026-04-23 19:12 9.32776 75.72180 33869 ft 471 kts 301°
2026-04-23 19:13 9.36578 75.66787 33868 ft 470 kts 301°
2026-04-23 19:13 9.40381 75.61396 33866 ft 470 kts 301°
2026-04-23 19:14 9.44160 75.56042 33862 ft 470 kts 301°
2026-04-23 19:14 9.47957 75.50655 33864 ft 470 kts 301°
2026-04-23 19:15 9.51753 75.45269 33866 ft 470 kts 301°
2026-04-23 19:15 9.55545 75.39878 33866 ft 470 kts 301°
2026-04-23 19:16 9.59339 75.34493 33862 ft 469 kts 301°
2026-04-23 19:16 9.63132 75.29110 33858 ft 469 kts 301°
2026-04-23 19:17 9.68810 75.21035 33854 ft 469 kts 300°
2026-04-23 19:17 9.72567 75.15685 33855 ft 469 kts 300°
2026-04-23 19:18 9.76354 75.10298 33857 ft 469 kts 300°
2026-04-23 19:18 9.80144 75.04911 33854 ft 469 kts 300°
2026-04-23 19:19 9.85820 74.96816 33853 ft 469 kts 300°
2026-04-23 19:20 9.91494 74.88716 33848 ft 470 kts 300°
2026-04-23 19:20 9.94641 74.84225 33847 ft 470 kts 300°
2026-04-23 19:21 10.00327 74.76121 33840 ft 470 kts 300°
2026-04-23 19:22 10.04730 74.69834 33835 ft 470 kts 300°
2026-04-23 19:22 10.09802 74.62588 33838 ft 471 kts 300°
2026-04-23 19:23 10.13595 74.57164 33838 ft 471 kts 300°
2026-04-23 19:24 10.19259 74.49054 33840 ft 472 kts 300°
2026-04-23 19:24 10.24959 74.40897 33839 ft 472 kts 300°
2026-04-23 19:25 10.32554 74.29999 33850 ft 473 kts 300°
2026-04-23 19:26 10.38264 74.21828 33853 ft 473 kts 300°
2026-04-23 19:27 10.47810 74.08261 33854 ft 472 kts 300°
2026-04-23 19:28 10.55434 73.97483 33848 ft 471 kts 300°
2026-04-23 19:29 10.61151 73.89372 33852 ft 470 kts 300°
2026-04-23 19:30 10.66856 73.81270 33849 ft 470 kts 300°
2026-04-23 19:31 10.72550 73.73174 33848 ft 469 kts 300°
2026-04-23 19:31 10.76340 73.67786 33850 ft 468 kts 300°
2026-04-23 19:32 10.80130 73.62404 33849 ft 468 kts 300°
2026-04-23 19:32 10.83919 73.57023 33851 ft 467 kts 300°
2026-04-23 19:33 10.87693 73.51650 33847 ft 467 kts 299°
2026-04-23 19:33 10.93324 73.43622 33844 ft 466 kts 299°
2026-04-23 19:34 10.97094 73.38249 33844 ft 466 kts 299°
2026-04-23 19:35 11.02744 73.30199 33846 ft 466 kts 299°
2026-04-23 19:35 11.06507 73.24833 33846 ft 466 kts 299°
2026-04-23 19:36 11.10260 73.19461 33845 ft 465 kts 299°
2026-04-23 19:36 11.14020 73.14090 33848 ft 465 kts 299°
2026-04-23 19:37 11.17777 73.08730 33852 ft 465 kts 299°
2026-04-23 19:37 11.21529 73.03364 33854 ft 464 kts 299°
2026-04-23 19:38 11.25271 72.98010 33849 ft 464 kts 299°
2026-04-23 19:38 11.29012 72.92658 33854 ft 463 kts 299°
2026-04-23 19:39 11.32743 72.87307 33856 ft 463 kts 299°
2026-04-23 19:39 11.36443 72.82006 33859 ft 462 kts 299°
2026-04-23 19:40 11.40165 72.76683 33855 ft 461 kts 299°
2026-04-23 19:40 11.43874 72.71370 33858 ft 459 kts 299°
2026-04-23 19:41 11.47573 72.66061 33855 ft 459 kts 299°
2026-04-23 19:41 11.51256 72.60765 33856 ft 458 kts 298°
2026-04-23 19:42 11.54937 72.55473 33854 ft 457 kts 299°
2026-04-23 19:42 11.58610 72.50196 33858 ft 456 kts 298°
2026-04-23 19:43 11.62276 72.44920 33855 ft 455 kts 298°
2026-04-23 19:43 11.65930 72.39659 33859 ft 454 kts 298°
2026-04-23 19:44 11.69562 72.34435 33847 ft 454 kts 298°
2026-04-23 19:44 11.73213 72.29188 33843 ft 453 kts 298°
2026-04-23 19:45 11.76856 72.23939 33847 ft 453 kts 298°
2026-04-23 19:45 11.80487 72.18687 33846 ft 453 kts 298°
2026-04-23 19:46 11.84116 72.13437 33848 ft 453 kts 298°
2026-04-23 19:46 11.87760 72.08195 33847 ft 452 kts 298°
2026-04-23 19:47 11.91398 72.02958 33847 ft 452 kts 298°
2026-04-23 19:47 11.95047 71.97725 33849 ft 452 kts 299°
2026-04-23 19:48 11.98785 71.92553 33846 ft 453 kts 300°
2026-04-23 19:48 12.02542 71.87433 33847 ft 453 kts 300°
2026-04-23 19:49 12.06308 71.82268 33846 ft 453 kts 300°
2026-04-23 19:49 12.10058 71.77091 33850 ft 453 kts 299°
2026-04-23 19:50 12.13803 71.71906 33851 ft 453 kts 299°
2026-04-23 19:50 12.17543 71.66719 33851 ft 453 kts 299°
2026-04-23 19:51 12.21289 71.61535 33857 ft 453 kts 299°
2026-04-23 19:51 12.25041 71.56344 33859 ft 454 kts 299°
2026-04-23 19:52 12.28798 71.51166 33858 ft 453 kts 299°
2026-04-23 19:52 12.32521 71.46013 33857 ft 453 kts 299°
2026-04-23 19:53 12.36256 71.40831 33861 ft 453 kts 299°
2026-04-23 19:53 12.39995 71.35646 33862 ft 452 kts 299°
2026-04-23 19:54 12.43716 71.30469 33858 ft 452 kts 299°
2026-04-23 19:54 12.47447 71.25297 33857 ft 451 kts 299°
2026-04-23 19:55 12.51173 71.20127 33855 ft 451 kts 299°
2026-04-23 19:55 12.54890 71.14964 33856 ft 450 kts 299°
2026-04-23 19:56 12.58607 71.09801 33853 ft 450 kts 299°
2026-04-23 19:56 12.62325 71.04641 33857 ft 450 kts 299°
2026-04-23 19:57 12.66022 70.99518 33857 ft 450 kts 299°
2026-04-23 19:57 12.69735 70.94359 33859 ft 450 kts 299°
2026-04-23 19:58 12.73443 70.89195 33855 ft 450 kts 299°
2026-04-23 19:58 12.77149 70.84041 33853 ft 450 kts 299°
2026-04-23 19:59 12.80858 70.78880 33848 ft 450 kts 299°
2026-04-23 19:59 12.84558 70.73719 33849 ft 450 kts 299°
2026-04-23 20:00 12.88256 70.68543 33848 ft 450 kts 299°
2026-04-23 20:00 12.91962 70.63376 33848 ft 450 kts 299°
2026-04-23 20:01 12.95678 70.58199 33851 ft 451 kts 299°
2026-04-23 20:01 12.99369 70.53051 33852 ft 451 kts 299°
2026-04-23 20:02 13.03076 70.47867 33855 ft 451 kts 299°
2026-04-23 20:02 13.06779 70.42677 33853 ft 451 kts 299°
2026-04-23 20:03 13.10472 70.37475 33852 ft 451 kts 299°
2026-04-23 20:03 13.14163 70.32274 33852 ft 451 kts 299°
2026-04-23 20:04 13.17857 70.27069 33844 ft 451 kts 299°
2026-04-23 20:04 13.21554 70.21855 33848 ft 451 kts 299°
2026-04-23 20:05 13.24622 70.17525 33843 ft 452 kts 299°
2026-04-23 20:05 13.28939 70.11423 33849 ft 452 kts 299°
2026-04-23 20:06 13.32631 70.06197 33850 ft 452 kts 299°
2026-04-23 20:06 13.36335 70.00966 33848 ft 453 kts 299°
2026-04-23 20:07 13.40038 69.95731 33849 ft 453 kts 299°
2026-04-23 20:07 13.43706 69.90531 33852 ft 453 kts 299°
2026-04-23 20:08 13.47408 69.85293 33852 ft 453 kts 299°
2026-04-23 20:08 13.51110 69.80057 33851 ft 453 kts 299°
2026-04-23 20:09 13.54814 69.74809 33850 ft 453 kts 299°
2026-04-23 20:09 13.58511 69.69563 33850 ft 454 kts 300°
2026-04-23 20:10 13.61587 69.65197 33852 ft 454 kts 300°
2026-04-23 20:10 13.65909 69.59048 33853 ft 454 kts 300°
2026-04-23 20:11 13.69608 69.53788 33855 ft 454 kts 300°
2026-04-23 20:11 13.73300 69.48526 33855 ft 454 kts 300°
2026-04-23 20:12 13.77001 69.43262 33855 ft 454 kts 300°
2026-04-23 20:12 13.80703 69.38002 33855 ft 454 kts 300°
2026-04-23 20:13 13.84371 69.32764 33847 ft 454 kts 300°
2026-04-23 20:13 13.88065 69.27497 33848 ft 454 kts 300°
2026-04-23 20:14 13.91763 69.22226 33853 ft 454 kts 300°
2026-04-23 20:14 13.95450 69.16959 33845 ft 454 kts 300°
2026-04-23 20:15 13.99145 69.11687 33855 ft 453 kts 300°
2026-04-23 20:15 14.02830 69.06421 33853 ft 453 kts 300°
2026-04-23 20:16 14.06513 69.01150 33856 ft 453 kts 301°
2026-04-23 20:16 14.10194 68.95883 33853 ft 453 kts 301°
2026-04-23 20:17 14.13871 68.90669 33859 ft 453 kts 301°
2026-04-23 20:17 14.17583 68.85431 33859 ft 453 kts 301°
2026-04-23 20:18 14.21295 68.80189 33857 ft 452 kts 301°
2026-04-23 20:18 14.25000 68.74944 33861 ft 452 kts 301°
2026-04-23 20:19 14.28690 68.69700 33858 ft 452 kts 302°
2026-04-23 20:19 14.32382 68.64455 33857 ft 452 kts 302°
2026-04-23 20:20 14.36075 68.59213 33860 ft 452 kts 302°
2026-04-23 20:20 14.39141 68.54854 33859 ft 452 kts 302°
2026-04-23 20:21 14.42821 68.49606 33857 ft 451 kts 302°
2026-04-23 20:21 14.46503 68.44359 33855 ft 451 kts 302°
2026-04-23 20:22 14.50192 68.39116 33858 ft 451 kts 302°
2026-04-23 20:22 14.53882 68.33874 33856 ft 451 kts 302°
2026-04-23 20:23 14.57566 68.28624 33858 ft 451 kts 302°
2026-04-23 20:23 14.61240 68.23375 33855 ft 451 kts 302°
2026-04-23 20:24 14.64915 68.18124 33861 ft 451 kts 303°
2026-04-23 20:24 14.68568 68.12907 33856 ft 451 kts 303°
2026-04-23 20:25 14.72234 68.07651 33861 ft 451 kts 303°
2026-04-23 20:25 14.75902 68.02402 33864 ft 451 kts 303°
2026-04-23 20:26 14.79570 67.97153 33860 ft 450 kts 303°
2026-04-23 20:26 14.83232 67.91903 33863 ft 450 kts 303°
2026-04-23 20:27 14.86888 67.86657 33861 ft 450 kts 303°
2026-04-23 20:27 14.90549 67.81411 33867 ft 450 kts 303°
2026-04-23 20:28 14.94207 67.76169 33870 ft 449 kts 303°
2026-04-23 20:28 14.97858 67.70925 33870 ft 449 kts 303°
2026-04-23 20:29 15.01510 67.65680 33866 ft 449 kts 303°
2026-04-23 20:29 15.05151 67.60438 33873 ft 449 kts 303°
2026-04-23 20:30 15.08790 67.55201 33876 ft 448 kts 304°
2026-04-23 20:30 15.14228 67.47384 33878 ft 448 kts 304°
2026-04-23 20:31 15.17857 67.42147 33878 ft 447 kts 304°
2026-04-23 20:31 15.21474 67.36913 33878 ft 447 kts 304°
2026-04-23 20:32 15.25097 67.31687 33878 ft 447 kts 304°
2026-04-23 20:32 15.28718 67.26460 33882 ft 446 kts 304°
2026-04-23 20:33 15.32324 67.21245 33882 ft 445 kts 304°
2026-04-23 20:33 15.35922 67.16026 33884 ft 444 kts 304°
2026-04-23 20:34 15.39491 67.10856 33884 ft 444 kts 304°
2026-04-23 20:34 15.43086 67.05663 33878 ft 443 kts 304°
2026-04-23 20:35 15.46667 67.00464 33877 ft 443 kts 304°
2026-04-23 20:35 15.50246 66.95270 33877 ft 443 kts 304°
2026-04-23 20:36 15.53825 66.90076 33875 ft 442 kts 304°
2026-04-23 20:36 15.57395 66.84879 33876 ft 442 kts 304°
2026-04-23 20:37 15.60974 66.79698 33879 ft 442 kts 305°
2026-04-23 20:37 15.64599 66.74556 33881 ft 442 kts 305°
2026-04-23 20:38 15.68224 66.69411 33882 ft 441 kts 305°
2026-04-23 20:38 15.71806 66.64289 33877 ft 441 kts 305°
2026-04-23 20:39 15.75403 66.59132 33877 ft 441 kts 305°
2026-04-23 20:39 15.79006 66.53980 33880 ft 441 kts 305°
2026-04-23 20:40 15.82605 66.48826 33878 ft 441 kts 305°
2026-04-23 20:40 15.86195 66.43677 33881 ft 440 kts 305°
2026-04-23 20:41 15.89785 66.38522 33882 ft 440 kts 305°
2026-04-23 20:41 15.93369 66.33376 33881 ft 440 kts 305°
2026-04-23 20:42 15.96958 66.28234 33878 ft 439 kts 306°
2026-04-23 20:42 16.00517 66.23121 33880 ft 439 kts 305°
2026-04-23 20:43 16.04086 66.17968 33878 ft 439 kts 306°
2026-04-23 20:43 16.07661 66.12817 33879 ft 439 kts 306°
2026-04-23 20:44 16.11234 66.07671 33882 ft 439 kts 306°
2026-04-23 20:44 16.14811 66.02525 33880 ft 439 kts 306°
2026-04-23 20:45 16.18387 65.97385 33878 ft 439 kts 306°
2026-04-23 20:45 16.21951 65.92234 33877 ft 439 kts 306°
2026-04-23 20:46 16.25513 65.87081 33884 ft 438 kts 306°
2026-04-23 20:46 16.29078 65.81929 33877 ft 438 kts 306°
2026-04-23 20:47 16.32635 65.76776 33884 ft 438 kts 306°
2026-04-23 20:47 16.36171 65.71656 33883 ft 438 kts 306°
2026-04-23 20:48 16.39724 65.66500 33888 ft 438 kts 306°
2026-04-23 20:48 16.43284 65.61343 33885 ft 438 kts 306°
2026-04-23 20:49 16.46841 65.56191 33888 ft 438 kts 306°
2026-04-23 20:49 16.50396 65.51030 33885 ft 438 kts 306°
2026-04-23 20:50 16.53940 65.45863 33887 ft 438 kts 306°
2026-04-23 20:50 16.57495 65.40706 33884 ft 438 kts 307°
2026-04-23 20:51 16.61050 65.35545 33886 ft 438 kts 307°
2026-04-23 20:51 16.64592 65.30373 33888 ft 438 kts 307°
2026-04-23 20:52 16.68134 65.25201 33892 ft 438 kts 307°
2026-04-23 20:52 16.71658 65.20070 33892 ft 438 kts 307°
2026-04-23 20:53 16.75205 65.14894 33897 ft 438 kts 307°
2026-04-23 20:53 16.78746 65.09719 33898 ft 438 kts 307°
2026-04-23 20:54 16.82286 65.04542 33896 ft 438 kts 307°
2026-04-23 20:54 16.85825 64.99372 33895 ft 438 kts 307°
2026-04-23 20:55 16.89363 64.94199 33894 ft 437 kts 307°
2026-04-23 20:55 16.92894 64.89029 33892 ft 437 kts 307°
2026-04-23 20:56 16.96419 64.83854 33897 ft 437 kts 307°
2026-04-23 20:56 16.99941 64.78686 33896 ft 437 kts 307°
2026-04-23 20:57 17.03463 64.73515 33897 ft 436 kts 307°
2026-04-23 20:57 17.06977 64.68346 33897 ft 436 kts 307°
2026-04-23 20:58 17.10489 64.63184 33898 ft 435 kts 308°
2026-04-23 20:58 17.13975 64.58062 33904 ft 435 kts 308°
2026-04-23 20:59 17.17477 64.52905 33901 ft 434 kts 307°
2026-04-23 20:59 17.20966 64.47752 33902 ft 434 kts 308°
2026-04-23 21:00 17.24450 64.42614 33905 ft 433 kts 308°
2026-04-23 21:00 17.27933 64.37474 33907 ft 432 kts 308°
2026-04-23 21:01 17.31446 64.32389 33908 ft 431 kts 309°
2026-04-23 21:01 17.35027 64.27363 33907 ft 430 kts 309°
2026-04-23 21:02 17.38588 64.22355 33906 ft 429 kts 309°
2026-04-23 21:02 17.42135 64.17333 33905 ft 428 kts 309°
2026-04-23 21:03 17.45665 64.12310 33908 ft 428 kts 308°
2026-04-23 21:03 17.49188 64.07292 33904 ft 428 kts 308°
2026-04-23 21:04 17.52689 64.02306 33907 ft 427 kts 308°
2026-04-23 21:04 17.56210 63.97293 33899 ft 427 kts 308°
2026-04-23 21:05 17.59731 63.92284 33899 ft 426 kts 308°
2026-04-23 21:05 17.63241 63.87280 33901 ft 426 kts 308°
2026-04-23 21:06 17.66750 63.82268 33901 ft 426 kts 308°
2026-04-23 21:06 17.70260 63.77259 33894 ft 426 kts 308°
2026-04-23 21:07 17.73773 63.72246 33894 ft 427 kts 308°
2026-04-23 21:07 17.77281 63.67229 33897 ft 427 kts 308°
2026-04-23 21:08 17.80792 63.62201 33901 ft 427 kts 308°
2026-04-23 21:08 17.84301 63.57182 33900 ft 427 kts 308°
2026-04-23 21:09 17.87812 63.52150 33902 ft 427 kts 308°
2026-04-23 21:09 17.91318 63.47120 33900 ft 427 kts 308°
2026-04-23 21:10 17.94799 63.42119 33900 ft 427 kts 308°
2026-04-23 21:10 17.98300 63.37082 33901 ft 427 kts 308°
2026-04-23 21:11 18.01803 63.32047 33903 ft 427 kts 308°
2026-04-23 21:11 18.05306 63.27015 33899 ft 426 kts 308°
2026-04-23 21:12 18.08794 63.21979 33906 ft 426 kts 308°
2026-04-23 21:12 18.12289 63.16935 33902 ft 426 kts 308°
2026-04-23 21:13 18.15778 63.11905 33900 ft 426 kts 308°
2026-04-23 21:13 18.19272 63.06876 33899 ft 426 kts 308°
2026-04-23 21:14 18.22742 63.01876 33901 ft 426 kts 308°
2026-04-23 21:14 18.26222 62.96835 33895 ft 426 kts 308°
2026-04-23 21:15 18.29700 62.91801 33897 ft 426 kts 308°
2026-04-23 21:15 18.33188 62.86765 33898 ft 426 kts 308°
2026-04-23 21:16 18.36416 62.82091 33897 ft 426 kts 308°
2026-04-23 21:16 18.39893 62.77035 33895 ft 426 kts 308°
2026-04-23 21:17 18.43372 62.71978 33897 ft 427 kts 308°
2026-04-23 21:17 18.46856 62.66910 33896 ft 427 kts 308°
2026-04-23 21:18 18.50347 62.61852 33897 ft 427 kts 308°
2026-04-23 21:18 18.53837 62.56779 33899 ft 427 kts 308°
2026-04-23 21:19 18.57314 62.51702 33898 ft 427 kts 308°
2026-04-23 21:19 18.60758 62.46672 33897 ft 428 kts 308°
2026-04-23 21:20 18.64213 62.41562 33897 ft 428 kts 308°
2026-04-23 21:20 18.67665 62.36444 33898 ft 428 kts 307°
2026-04-23 21:21 18.71114 62.31327 33895 ft 428 kts 308°
2026-04-23 21:21 18.74577 62.26209 33893 ft 428 kts 308°
2026-04-23 21:22 18.78032 62.21093 33894 ft 428 kts 307°
2026-04-23 21:22 18.81490 62.15967 33893 ft 428 kts 307°
2026-04-23 21:23 18.84949 62.10852 33888 ft 428 kts 307°
2026-04-23 21:23 18.88401 62.05714 33881 ft 429 kts 307°
2026-04-23 21:24 18.91836 62.00606 33880 ft 429 kts 307°
2026-04-23 21:24 18.95298 61.95465 33880 ft 430 kts 307°
2026-04-23 21:25 18.98758 61.90303 33882 ft 430 kts 307°
2026-04-23 21:25 19.02217 61.85137 33887 ft 431 kts 307°
2026-04-23 21:26 19.05687 61.79978 33885 ft 431 kts 307°
2026-04-23 21:26 19.09158 61.74806 33892 ft 431 kts 307°
2026-04-23 21:27 19.12620 61.69636 33896 ft 431 kts 306°
2026-04-23 21:27 19.16080 61.64453 33900 ft 431 kts 306°
2026-04-23 21:28 19.19541 61.59274 33898 ft 431 kts 306°
2026-04-23 21:28 19.23000 61.54108 33901 ft 430 kts 306°
2026-04-23 21:29 19.26450 61.48935 33906 ft 430 kts 306°
2026-04-23 21:29 19.29884 61.43770 33898 ft 429 kts 306°
2026-04-23 21:30 19.33322 61.38614 33899 ft 428 kts 306°
2026-04-23 21:30 19.36728 61.33498 33901 ft 427 kts 307°
2026-04-23 21:31 19.40147 61.28362 33898 ft 427 kts 307°
2026-04-23 21:31 19.43561 61.23220 33901 ft 426 kts 306°
2026-04-23 21:32 19.46967 61.18086 33898 ft 425 kts 307°
2026-04-23 21:32 19.50367 61.12961 33893 ft 424 kts 307°
2026-04-23 21:33 19.53756 61.07853 33888 ft 423 kts 307°
2026-04-23 21:33 19.57141 61.02749 33894 ft 422 kts 307°
2026-04-23 21:34 19.60509 60.97658 33895 ft 422 kts 307°
2026-04-23 21:34 19.63870 60.92568 33895 ft 420 kts 307°
2026-04-23 21:35 19.67202 60.87524 33897 ft 420 kts 307°
2026-04-23 21:35 19.70547 60.82463 33893 ft 419 kts 307°
2026-04-23 21:36 19.75562 60.74874 33884 ft 418 kts 306°
2026-04-23 21:37 19.78876 60.69821 33881 ft 417 kts 306°
2026-04-23 21:37 19.82194 60.64770 33889 ft 417 kts 306°
2026-04-23 21:38 19.85509 60.59727 33889 ft 416 kts 306°
2026-04-23 21:38 19.88829 60.54691 33881 ft 416 kts 306°
2026-04-23 21:39 19.92133 60.49663 33890 ft 415 kts 306°
2026-04-23 21:39 19.95407 60.44659 33882 ft 415 kts 306°
2026-04-23 21:40 19.98698 60.39634 33874 ft 414 kts 306°
2026-04-23 21:40 20.01994 60.34604 33880 ft 414 kts 306°
2026-04-23 21:41 20.05652 60.29917 33878 ft 412 kts 319°
2026-04-23 21:41 20.10432 60.26558 33875 ft 412 kts 328°
2026-04-23 21:42 20.15370 60.23444 33875 ft 412 kts 328°
2026-04-23 21:42 20.20301 60.20322 33876 ft 413 kts 328°
2026-04-23 21:43 20.25231 60.17192 33875 ft 413 kts 328°
2026-04-23 21:43 20.30164 60.14053 33879 ft 413 kts 328°
2026-04-23 21:44 20.35065 60.10936 33872 ft 413 kts 328°
2026-04-23 21:44 20.40004 60.07790 33874 ft 413 kts 328°
2026-04-23 21:45 20.44935 60.04648 33877 ft 413 kts 328°
2026-04-23 21:45 20.49873 60.01499 33876 ft 413 kts 328°
2026-04-23 21:46 20.53977 59.98882 33868 ft 414 kts 328°
2026-04-23 21:46 20.58916 59.95740 33870 ft 414 kts 328°
2026-04-23 21:47 20.63859 59.92587 33873 ft 414 kts 328°
2026-04-23 21:47 20.68798 59.89423 33871 ft 414 kts 328°
2026-04-23 21:48 20.73740 59.86257 33870 ft 414 kts 328°
2026-04-23 21:48 20.78685 59.83091 33870 ft 415 kts 328°
2026-04-23 21:49 20.83640 59.79924 33870 ft 415 kts 328°
2026-04-23 21:49 20.88558 59.76773 33871 ft 415 kts 328°
2026-04-23 21:50 20.93512 59.73592 33869 ft 416 kts 328°
2026-04-23 21:50 20.98469 59.70405 33865 ft 416 kts 328°
2026-04-23 21:51 21.03434 59.67216 33869 ft 416 kts 328°
2026-04-23 21:51 21.08400 59.64026 33870 ft 416 kts 328°
2026-04-23 21:52 21.13365 59.60826 33870 ft 417 kts 327°
2026-04-23 21:52 21.18334 59.57622 33867 ft 417 kts 327°
2026-04-23 21:53 21.23303 59.54412 33869 ft 417 kts 327°
2026-04-23 21:53 21.28275 59.51200 33866 ft 417 kts 327°
2026-04-23 21:54 21.33248 59.47991 33867 ft 417 kts 327°
2026-04-23 21:54 21.38194 59.44802 33867 ft 417 kts 327°
2026-04-23 21:55 21.43164 59.41582 33865 ft 417 kts 327°
2026-04-23 21:55 21.48133 59.38362 33870 ft 417 kts 327°
2026-04-23 21:56 21.53111 59.35141 33870 ft 417 kts 327°
2026-04-23 21:56 21.58086 59.31913 33872 ft 417 kts 327°
2026-04-23 21:57 21.63048 59.28678 33873 ft 417 kts 327°
2026-04-23 21:57 21.68019 59.25440 33874 ft 418 kts 327°
2026-04-23 21:58 21.72988 59.22206 33874 ft 418 kts 327°
2026-04-23 21:58 21.77969 59.18970 33881 ft 418 kts 327°
2026-04-23 21:59 21.82954 59.15726 33882 ft 418 kts 327°
2026-04-23 21:59 21.87901 59.12501 33887 ft 419 kts 327°
2026-04-23 22:00 21.95367 59.07623 33892 ft 419 kts 327°
2026-04-23 22:00 22.00355 59.04373 33893 ft 419 kts 327°
2026-04-23 22:01 22.05338 59.01122 33900 ft 419 kts 327°
2026-04-23 22:01 22.10318 58.97863 33904 ft 419 kts 327°
2026-04-23 22:02 22.15294 58.94597 33907 ft 419 kts 327°
2026-04-23 22:02 22.20251 58.91306 33908 ft 418 kts 323°
2026-04-23 22:03 22.24338 58.86917 33911 ft 414 kts 304°
2026-04-23 22:03 22.27120 58.81533 33910 ft 414 kts 298°
2026-04-23 22:04 22.29812 58.76042 33900 ft 414 kts 298°
2026-04-23 22:04 22.32507 58.70553 33906 ft 414 kts 297°
2026-04-23 22:05 22.35185 58.65083 33877 ft 410 kts 297°
2026-04-23 22:05 22.37872 58.59593 33902 ft 414 kts 297°
2026-04-23 22:06 22.40563 58.54109 33914 ft 413 kts 297°
2026-04-23 22:06 22.43257 58.48610 33915 ft 413 kts 297°
2026-04-23 22:07 22.45918 58.43151 33919 ft 413 kts 297°
2026-04-23 22:07 22.48594 58.37658 33916 ft 413 kts 297°
2026-04-23 22:08 22.51265 58.32175 33921 ft 413 kts 297°
2026-04-23 22:08 22.53938 58.26673 33918 ft 412 kts 297°
2026-04-23 22:09 22.56600 58.21177 33922 ft 412 kts 297°
2026-04-23 22:09 22.59268 58.15690 33924 ft 412 kts 297°
2026-04-23 22:10 22.61943 58.10195 33926 ft 412 kts 297°
2026-04-23 22:10 22.64610 58.04701 33924 ft 412 kts 297°
2026-04-23 22:11 22.67244 57.99239 33930 ft 412 kts 297°
2026-04-23 22:11 22.69896 57.93744 33925 ft 412 kts 297°
2026-04-23 22:12 22.72553 57.88254 33932 ft 411 kts 297°
2026-04-23 22:12 22.75205 57.82765 33938 ft 411 kts 297°
2026-04-23 22:13 22.77848 57.77276 33937 ft 411 kts 297°
2026-04-23 22:13 22.80490 57.71786 33940 ft 410 kts 297°
2026-04-23 22:14 22.83125 57.66302 33948 ft 410 kts 297°
2026-04-23 22:14 22.85754 57.60822 33953 ft 409 kts 297°
2026-04-23 22:15 22.88373 57.55351 33963 ft 408 kts 297°
2026-04-23 22:15 22.90985 57.49886 33962 ft 408 kts 297°
2026-04-23 22:16 22.93602 57.44428 33968 ft 408 kts 297°
2026-04-23 22:16 22.96201 57.39008 33966 ft 407 kts 297°
2026-04-23 22:17 22.98787 57.33552 33975 ft 406 kts 294°
2026-04-23 22:17 23.00203 57.27651 33958 ft 407 kts 275°
2026-04-23 22:18 23.00368 57.21514 33958 ft 407 kts 273°
2026-04-23 22:18 23.00521 57.15367 33955 ft 407 kts 274°
2026-04-23 22:19 23.00674 57.09243 33952 ft 406 kts 274°
2026-04-23 22:19 23.00824 57.03112 33947 ft 406 kts 274°
2026-04-23 22:20 23.01621 56.97109 33943 ft 402 kts 289°
2026-04-23 22:20 23.04020 56.91628 33942 ft 402 kts 297°
2026-04-23 22:21 23.06592 56.86245 33941 ft 402 kts 297°